Regional Weather Roundup
Issued by NWS

Home | Current Version | Previous Version | Text Only | Print | Product List | Glossary Off
Versions: 1 2 3 4 5 6 7 8 9 10 11 12 13 14 15 16 17 18 19 20 21 22 23 24 25 26 27 28 29 30 31 32 33 34 35 36 37 38 39 40 41 42 43 44 45 46 47 48 49 50

858
ASUS45 KSLC 062210
RWRUT

UTAH REGIONAL WEATHER ROUNDUP
NATIONAL WEATHER SERVICE SALT LAKE CITY UT
300 PM MST SAT FEB 06 2016

UTZ001>011-023>025-062300-

NORTHERN UTAH

CITY           SKY/WX    TMP DP  RH WIND       PRES   REMARKS
BRIGHAM CITY   CLOUDY    30  23  73 CALM      30.48F
HILL AFB       PTSUNNY   36  14  41 CALM      30.44F
LOGAN          PTSUNNY   30  23  75 N5        30.45F WCI  25
OGDEN          PTSUNNY   34  24  67 NW3       30.45F
PROVO AIRPORT  SUNNY     25  18  74 CALM      30.48F
SALT LAKE CITY PTSUNNY   38  25  59 NW7       30.46F WCI  33
VERNAL         CLOUDY    18   9  68 E3        30.45F
WENDOVER       PTSUNNY   34  25  69 SE5       30.46F WCI  30
HEBER CITY     SUNNY     28  18  64 CALM      30.42S
WEST JORDAN    SUNNY     36  21  55 S3        30.46F

$$

UTZ012>022-026-027-062300-

SOUTHERN/CENTRAL UTAH

CITY           SKY/WX    TMP DP  RH WIND       PRES   REMARKS
BLANDING       SUNNY     33  21  60 S5        30.50S WCI  29
BRYCE CANYON   SUNNY     35  15  44 NE5       30.41F WCI  31
CEDAR CITY     SUNNY     33  21  61 NW9       30.38F WCI  25
DELTA          SUNNY     19  17  95 CALM      30.48F
HANKSVILLE     CLOUDY    23  18  80 CALM      30.57F
MILFORD        SUNNY     19  12  74 NW5       30.45F WCI  12
MOAB/CYNLANDS  SUNNY     21  15  78 NW8       30.52F WCI  11
PRICE          SUNNY     25  14  63 VRB3      30.44F
ST GEORGE      CLEAR     50  23  34 CALM      30.40F
KANAB          SUNNY     48  27  43 E14       30.42F

$$

REGIONAL REPORTS     COLORADO/ARIZONA

CITY           SKY/WX    TMP DP  RH WIND       PRES   REMARKS
CRAIG, CO      CLOUDY    20  13  74 SW5       30.39F WCI  13
GRAND JUNCTION SUNNY     22  13  68 NW5       30.49F WCI  16
RIFLE          SUNNY     26  10  50 CALM      30.45F
MONTROSE       SUNNY     30  14  51 NE3       30.48F
CORTEZ         SUNNY     37  16  42 S3        30.41F
PAGE, AZ       SUNNY     41  23  48 NE6       30.46F
GRAND CANYON   SUNNY     50  17  27 VRB6      30.39S
KINGMAN        SUNNY     59  18  20 N10       30.32F
FLAGSTAFF      SUNNY     43  13  29 NE7       30.37F

$$

REGIONAL REPORTS    NEVADA/IDAHO/WYOMING

CITY           SKY/WX    TMP DP  RH WIND       PRES   REMARKS
LAS VEGAS, NV  SUNNY     59  22  24 VRB3      30.32F
ELY            SUNNY     36  23  59 E5        30.42F WCI  32
ELKO           SUNNY     28  16  60 CALM      30.46F
POCATELLO, ID  CLOUDY    38  25  59 S23G30    30.35F WCI  27
BURLEY         CLOUDY    45  29  53 SW12      30.38F
EVANSTON, WY   CLOUDY    31  18  58 SW22      30.36R WCI  18
ROCK SPRINGS   CLOUDY    33  18  53 W36G43    30.24F WCI  18
KEMMERER       CLOUDY    30  19  64 W14       30.32F WCI  20

$$




USA.gov is the U.S. government's official web portal to all federal, state and local government web resources and services.